Date,TemperatureHighF,TemperatureAvgF,TemperatureLowF,DewpointHighF,DewpointAvgF,DewpointLowF,HumidityHigh,HumidityAvg,HumidityLow,PressureMaxIn,PressureMinIn,WindSpeedMaxMPH,WindSpeedAvgMPH,GustSpeedMaxMPH,PrecipitationSumIn
2013-1-1,14.0,3.2,-12.0,1.0,-7.7,-18.0,77,63,36,0.00,40.00,5,2,11,0.00
2013-1-2,23.0,18.1,13.0,11.0,5.3,1.0,78,58,40,0.00,40.00,4,2,11,0.00
2013-1-3,23.0,18.3,11.0,14.0,10.4,4.0,75,71,64,0.00,40.00,9,6,18,0.00
2013-1-4,31.0,20.2,8.0,12.0,8.0,2.0,83,62,41,0.00,40.00,8,5,17,0.00
2013-1-5,37.0,20.7,3.0,21.0,10.4,-1.0,83,67,39,0.00,40.00,6,2,14,0.00
2013-1-6,31.0,21.4,7.0,19.0,13.2,3.0,85,72,49,0.00,40.00,7,3,15,0.00
2013-1-7,39.0,22.4,6.0,21.0,11.7,2.0,85,66,36,0.00,40.00,10,5,22,0.00
2013-1-8,39.0,29.1,11.0,28.0,20.5,8.0,88,72,46,0.00,40.00,6,2,15,0.00
2013-1-9,40.0,32.7,19.0,27.0,20.0,12.0,79,61,35,0.00,40.00,14,6,23,0.00
2013-1-10,36.0,25.0,14.0,31.0,17.6,11.0,89,76,37,0.00,40.00,6,1,11,0.00
2013-1-11,42.0,37.6,34.0,39.0,34.6,31.0,89,89,89,0.00,40.00,6,1,12,0.00
2013-1-12,44.0,29.7,16.0,41.0,18.0,3.0,89,62,47,0.00,40.00,15,8,32,0.00
2013-1-13,16.0,13.1,6.0,3.0,0.6,-5.0,61,57,53,0.00,40.00,7,5,16,0.00
2013-1-14,18.0,10.1,4.0,3.0,-0.6,-5.0,75,63,48,0.00,40.00,9,4,18,0.00
2013-1-15,31.0,16.4,0.0,10.0,2.2,-5.0,81,58,29,0.00,40.00,9,3,20,0.00
2013-1-16,32.0,24.6,17.0,24.0,13.3,-1.0,76,63,37,0.00,40.00,9,6,21,0.00
2013-1-17,19.0,12.6,4.0,1.0,-3.0,-8.0,74,50,35,0.00,40.00,7,4,19,0.00
2013-1-18,42.0,23.8,2.0,30.0,14.9,-4.0,82,70,43,0.00,40.00,8,3,18,0.00
2013-1-19,46.0,30.8,7.0,31.0,20.0,-8.0,85,65,43,0.00,40.00,16,6,43,0.00
2013-1-20,11.0,5.1,0.0,-7.0,-10.2,-13.0,58,49,38,0.00,40.00,15,6,30,0.00
2013-1-21,4.0,-4.2,-9.0,-9.0,-16.9,-22.0,65,54,43,0.00,40.00,11,6,23,0.00
2013-1-22,2.0,-7.0,-11.0,-14.0,-18.5,-21.0,65,57,42,0.00,40.00,5,3,13,0.00
2013-1-23,15.0,5.4,-9.0,3.0,-5.7,-17.0,72,60,47,0.00,40.00,11,5,20,0.00
2013-1-24,0.0,-3.6,-5.0,-10.0,-12.0,-13.0,71,67,58,0.00,40.00,6,3,12,0.00
2013-1-30,25.0,19.4,14.0,22.0,13.4,5.0,87,77,69,0.00,40.00,10,7,21,0.00
2013-1-31,14.0,6.3,-1.0,6.0,-5.8,-10.0,70,58,47,0.00,40.00,9,6,19,0.00
2013-2-1,4.0,-2.4,-10.0,-7.0,-15.4,-20.0,67,55,34,0.00,40.00,6,4,14,0.00
2013-2-2,15.0,3.8,-2.0,-6.0,-8.7,-13.0,71,57,28,0.00,40.00,6,2,10,0.00
2013-2-3,18.0,7.6,0.0,2.0,-4.1,-8.0,77,60,36,0.00,40.00,9,3,21,0.00
2013-2-4,18.0,6.8,-1.0,-1.0,-6.6,-15.0,74,56,22,0.00,40.00,4,1,10,0.00
2013-2-5,24.0,14.1,-1.0,16.0,5.5,-10.0,80,69,54,0.00,40.00,9,4,16,0.00
2013-2-6,26.0,11.1,-5.0,20.0,5.3,-10.0,87,77,52,0.00,40.00,2,1,9,0.00
2013-2-7,27.0,24.7,23.0,24.0,21.5,17.0,89,88,80,0.00,40.00,8,5,14,0.00
2013-2-8,28.0,16.4,1.0,17.0,5.7,-4.0,80,64,31,0.00,40.00,7,3,16,0.00
2013-2-9,25.0,14.3,-5.0,20.0,8.8,-10.0,81,78,72,0.00,40.00,6,2,14,0.00
2013-2-10,38.0,30.4,25.0,35.0,26.8,20.0,89,86,78,0.00,40.00,7,2,20,0.00
2013-2-11,37.0,30.5,25.0,34.0,24.0,13.0,89,78,60,0.00,40.00,11,7,24,0.00
2013-2-12,30.0,24.0,20.0,16.0,11.2,7.0,75,59,43,0.00,40.00,8,5,19,0.00
2013-2-13,39.0,26.5,13.0,22.0,16.8,9.0,87,69,39,0.00,40.00,4,1,10,0.00
2013-2-14,32.0,29.2,18.0,27.0,21.4,2.0,88,74,49,0.00,40.00,9,5,20,0.00
2013-2-15,22.0,13.0,4.0,3.0,-1.8,-9.0,69,52,34,0.00,40.00,6,3,15,0.00
2013-2-16,17.0,5.0,-8.0,-3.0,-8.9,-16.0,72,54,26,0.00,40.00,6,2,12,0.00
2013-2-17,23.0,3.5,-16.0,5.0,-10.8,-22.0,72,55,24,0.00,40.00,5,1,12,0.00
2013-2-18,42.0,29.9,20.0,29.0,18.4,5.0,86,63,40,0.00,40.00,9,2,18,0.00
2013-2-19,26.0,12.1,4.0,22.0,0.0,-11.0,85,60,39,0.00,40.00,11,8,24,0.00
2013-2-20,24.0,10.0,1.0,1.0,-4.7,-11.0,71,53,29,0.00,40.00,7,5,16,0.00
2013-2-21,23.0,11.6,-4.0,18.0,3.3,-10.0,85,70,51,0.00,40.00,10,4,27,0.00
2013-2-22,29.0,25.0,21.0,23.0,20.6,16.0,89,84,74,0.00,40.00,9,4,22,0.00
2013-2-23,32.0,26.5,23.0,22.0,18.3,13.0,88,73,47,0.00,40.00,8,-38,15,0.00
2013-2-24,36.0,26.3,13.0,21.0,16.5,9.0,83,68,40,0.00,40.00,5,2,12,0.00
2013-2-25,36.0,23.0,10.0,22.0,14.3,7.0,86,71,42,0.00,40.00,1,0,4,0.00
2013-2-26,35.0,28.2,18.0,24.0,19.1,14.0,90,70,49,0.00,40.00,16,9,28,0.00
2013-2-27,33.0,31.2,29.0,28.0,23.1,18.0,87,72,61,0.00,40.00,14,7,24,0.00
2013-2-28,32.0,29.6,23.0,23.0,15.7,7.0,73,57,43,0.00,40.00,9,7,18,0.00
2013-3-1,30.0,24.3,18.0,10.0,6.4,-1.0,57,47,33,0.00,40.00,9,5,14,0.00
2013-3-2,28.0,18.2,9.0,5.0,-0.4,-7.0,72,47,22,0.00,40.00,7,3,14,0.00
2013-3-3,32.0,14.2,-3.0,3.0,-6.9,-18.0,78,47,11,0.00,40.00,4,1,7,0.00
2013-3-4,31.0,18.7,4.0,13.0,5.2,-5.0,76,57,37,0.00,40.00,6,3,14,0.00
2013-3-5,29.0,25.9,24.0,24.0,16.4,11.0,87,68,58,0.00,40.00,10,6,17,0.00
2013-3-6,33.0,26.5,17.0,19.0,15.0,7.0,80,63,42,0.00,40.00,8,4,14,0.00
2013-3-7,35.0,19.2,2.0,12.0,4.9,-2.0,82,58,28,0.00,40.00,4,1,9,0.00
2013-3-8,40.0,26.1,9.0,20.0,14.4,6.0,86,64,35,0.00,40.00,4,1,12,0.00
2013-3-9,39.0,32.7,25.0,32.0,26.6,20.0,89,78,65,0.00,40.00,2,1,9,0.00
2013-3-10,37.0,34.9,32.0,34.0,31.2,29.0,89,86,76,0.00,40.00,14,6,26,0.00
2013-3-11,34.0,30.2,26.0,31.0,25.7,17.0,89,83,68,0.00,40.00,7,5,16,0.00
2013-3-12,30.0,25.6,20.0,20.0,12.9,7.0,80,60,37,0.00,40.00,9,5,16,0.00
2013-3-13,33.0,23.2,15.0,12.0,1.3,-9.0,73,44,18,0.00,40.00,9,5,21,0.00
2013-3-14,37.0,23.6,6.0,23.0,8.8,-2.0,81,56,23,0.00,40.00,4,2,11,0.00
2013-3-15,35.0,30.0,24.0,29.0,25.6,21.0,88,84,75,0.00,40.00,6,2,16,0.00
2013-3-16,32.0,22.8,17.0,21.0,7.9,2.0,88,56,28,0.00,40.00,10,5,17,0.00
2013-3-17,27.0,17.6,6.0,8.0,0.1,-6.0,68,47,28,0.00,40.00,6,3,12,0.00
2013-3-18,30.0,22.1,15.0,24.0,16.5,8.0,85,79,68,0.00,40.00,11,3,21,0.00
2013-3-19,26.0,18.1,12.0,10.0,1.7,-5.0,78,52,28,0.00,40.00,12,8,27,0.00
2013-3-20,19.0,12.4,5.0,-2.0,-6.3,-10.0,62,43,32,0.00,40.00,9,6,22,0.00
2013-3-21,30.0,16.5,5.0,5.0,0.4,-3.0,72,52,25,0.00,40.00,6,3,16,0.00
2013-3-22,38.0,20.6,2.0,10.0,3.8,-3.0,82,53,23,0.00,40.00,6,2,11,0.00
2013-3-23,38.0,26.2,15.0,20.0,12.6,8.0,82,60,32,0.00,40.00,4,1,10,0.00
2013-3-24,33.0,29.6,28.0,20.0,18.0,15.0,71,62,47,0.00,40.00,10,6,18,0.00
2013-3-25,37.0,29.6,21.0,19.0,15.5,12.0,84,57,35,0.00,40.00,11,6,21,0.00
2013-3-26,42.0,33.5,27.0,21.0,16.0,12.0,64,50,32,0.00,40.00,6,4,14,0.00
2013-3-27,43.0,35.3,26.0,19.0,13.3,7.0,68,43,23,0.00,40.00,6,3,14,0.00
2013-3-28,47.0,32.2,16.0,20.0,10.2,4.0,88,48,17,0.00,40.00,6,2,12,0.00
2013-3-29,52.0,34.8,17.0,24.0,11.0,1.0,87,47,13,0.00,40.00,6,1,10,0.00
2013-3-30,46.0,38.6,29.0,38.0,26.0,-99.9,88,65,50,0.00,40.00,7,3,12,0.00
2013-3-31,41.0,35.8,29.0,34.0,22.9,0.0,88,64,22,0.00,40.00,10,5,22,0.00
2013-4-1,34.0,27.8,22.0,12.0,3.4,0.0,49,35,25,0.00,40.00,9,6,23,0.00
2013-4-2,36.0,28.2,19.0,12.0,6.0,1.0,64,41,23,0.00,40.00,7,4,17,0.00
2013-4-3,44.0,29.7,12.0,14.0,2.2,-10.0,82,39,10,0.00,40.00,6,2,12,0.00
2013-4-4,51.0,40.3,31.0,24.0,16.5,10.0,44,38,31,0.00,40.00,11,6,22,0.00
2013-4-5,44.0,34.3,24.0,26.0,14.1,7.0,81,46,23,0.00,40.00,6,2,9,0.00
2013-4-6,49.0,37.6,30.0,42.0,28.1,23.0,88,72,35,0.00,40.00,7,2,17,0.00
2013-4-7,46.0,38.1,33.0,37.0,26.0,20.0,88,63,37,0.00,40.00,9,4,20,0.00
2013-4-8,38.0,35.9,35.0,34.0,31.1,27.0,89,83,71,0.00,40.00,7,3,12,0.00
2013-4-9,40.0,36.1,33.0,37.0,31.1,19.0,89,83,53,0.00,40.00,16,7,25,0.00
2013-4-10,37.0,33.0,29.0,29.0,24.8,8.0,89,73,33,0.00,40.00,12,7,24,0.00
2013-4-11,35.0,31.8,29.0,29.0,21.9,8.0,88,70,33,0.00,40.00,17,8,34,0.00
2013-4-12,35.0,31.3,29.0,29.0,26.7,25.0,89,83,69,0.00,40.00,4,3,11,0.00
2013-4-13,39.0,32.5,27.0,28.0,20.2,12.0,87,63,32,0.00,40.00,8,4,20,0.00
2013-4-14,35.0,29.4,21.0,31.0,24.3,17.0,89,82,60,0.00,40.00,9,4,22,0.00
2013-4-15,52.0,40.8,34.0,39.0,26.3,14.0,89,63,22,0.00,40.00,13,5,29,0.00
2013-4-16,46.0,38.7,29.0,26.0,21.4,17.0,69,51,32,0.00,40.00,7,4,17,0.00
2013-4-17,38.0,34.9,28.0,33.0,27.2,20.0,89,73,61,0.00,40.00,13,6,22,0.00
2013-4-18,41.0,37.4,35.0,38.0,34.4,32.0,89,89,89,0.00,40.00,11,6,21,0.00
2013-4-19,39.0,32.5,26.0,36.0,20.9,9.0,89,65,36,0.00,40.00,13,8,25,0.00
2013-4-20,40.0,30.3,21.0,15.0,4.5,-4.0,69,38,15,0.00,40.00,10,4,18,0.00
2013-4-21,42.0,33.2,24.0,32.0,24.4,13.0,87,70,54,0.00,40.00,2,1,11,0.00
2013-4-22,47.0,44.3,42.0,43.0,38.7,27.0,87,81,54,0.00,40.00,6,3,12,0.00
2013-4-23,46.0,38.2,29.0,43.0,27.3,16.0,88,67,45,0.00,40.00,10,5,18,0.00
2013-4-24,53.0,39.8,23.0,27.0,13.0,1.0,87,43,14,0.00,40.00,12,4,22,0.00
2013-4-25,49.0,40.1,31.0,32.0,23.0,12.0,87,57,23,0.00,40.00,12,5,22,0.00
2013-4-26,72.0,51.5,29.0,38.0,26.8,19.0,81,47,14,0.00,40.00,12,4,25,0.00
2013-4-27,73.0,60.4,48.0,44.0,38.6,32.0,83,49,23,0.00,40.00,7,4,17,0.00
2013-4-28,75.0,59.1,38.0,46.0,31.1,20.0,88,45,14,0.00,40.00,6,2,15,0.00
2013-4-29,74.0,61.0,51.0,50.0,43.2,37.0,87,56,28,0.00,40.00,6,2,17,0.00
2013-4-30,86.0,71.2,57.0,54.0,44.0,28.0,83,44,20,0.00,40.00,14,7,24,0.00
2013-5-1,67.0,56.3,42.0,45.0,35.3,30.0,81,49,26,0.00,40.00,9,6,22,0.00
2013-5-2,42.0,37.7,33.0,34.0,30.2,29.0,88,75,66,0.00,40.00,10,7,19,0.00
2013-5-3,43.0,36.5,32.0,40.0,34.1,29.0,92,91,85,0.00,40.00,9,6,14,0.00
2013-5-4,73.0,55.4,42.0,42.0,37.4,28.0,90,59,19,0.00,40.00,7,4,17,0.00
2013-5-5,71.0,57.2,46.0,43.0,34.1,20.0,83,48,15,0.00,40.00,6,3,11,0.00
2013-5-6,77.0,56.8,40.0,40.0,29.6,17.0,88,50,11,0.00,40.00,6,1,9,0.00
2013-5-7,80.0,62.4,43.0,43.0,26.2,8.0,81,37,6,0.00,40.00,4,1,9,0.00
2013-5-8,81.0,62.8,43.0,42.0,32.2,20.0,78,40,11,0.00,40.00,4,1,9,0.00
2013-5-9,63.0,55.4,43.0,52.0,46.3,38.0,89,73,40,0.00,40.00,14,-35,22,0.00
2013-5-10,63.0,47.7,39.0,39.0,29.2,-99.9,89,60,21,0.00,40.00,10,5,21,0.00
2013-5-11,50.0,45.0,37.0,44.0,26.4,-99.9,85,56,20,0.00,40.00,15,7,29,0.00
2013-5-12,53.0,41.3,34.0,24.0,13.5,2.0,59,35,14,0.00,40.00,11,7,24,0.00
2013-5-13,65.0,47.1,24.0,26.0,12.6,1.0,82,34,8,0.00,40.00,4,2,13,0.00
2013-5-14,84.0,63.1,42.0,53.0,38.7,26.0,68,43,16,0.00,40.00,5,1,11,0.00
2013-5-15,76.0,67.5,59.0,53.0,36.9,31.0,62,34,19,0.00,40.00,10,5,21,0.00
2013-5-16,84.0,53.8,46.0,45.0,10.0,-99.9,84,46,13,0.00,40.00,6,2,15,0.00
2013-5-17,56.0,50.8,47.0,49.0,36.2,-99.9,88,75,39,0.00,40.00,6,3,17,0.00
2013-5-18,77.0,60.1,50.0,58.0,49.1,44.0,85,70,43,0.00,40.00,7,-9,12,0.00
2013-5-19,84.0,67.6,55.0,62.0,55.3,46.0,87,68,33,0.00,40.00,4,1,18,0.00
2013-5-20,83.0,71.4,61.0,62.0,52.1,41.0,87,57,24,0.00,40.00,11,4,24,0.00
2013-5-21,74.0,68.4,62.0,63.0,53.3,46.0,81,60,39,0.00,40.00,11,4,21,0.00
2013-5-22,64.0,57.2,51.0,57.0,52.7,47.0,87,85,64,0.00,40.00,9,4,18,0.00
2013-5-23,60.0,51.1,42.0,47.0,27.7,12.0,86,49,16,0.00,40.00,12,8,21,0.00
2013-5-24,67.0,50.8,32.0,32.0,23.7,15.0,84,41,14,0.00,40.00,5,2,9,0.00
2013-5-25,68.0,55.5,44.0,38.0,29.6,22.0,79,42,18,0.00,40.00,2,1,11,0.00
2013-5-26,66.0,54.0,37.0,36.0,29.0,24.0,86,44,22,0.00,40.00,7,2,17,0.00
2013-5-27,61.0,54.9,51.0,49.0,38.7,27.0,87,57,34,0.00,40.00,6,3,22,0.00
2013-5-28,58.0,53.8,51.0,54.0,50.0,47.0,87,87,87,0.00,40.00,5,2,12,0.00
2013-5-29,79.0,60.8,56.0,62.0,55.5,50.0,87,84,36,0.00,40.00,11,2,17,0.00
2013-5-30,83.0,70.3,62.0,67.0,61.3,54.0,86,76,37,0.00,40.00,7,2,22,0.00
2013-5-31,81.0,71.1,63.0,60.0,52.4,45.0,80,55,31,0.00,40.00,9,5,19,0.00
2013-6-1,78.0,66.8,53.0,57.0,48.9,-99.9,85,58,32,0.00,40.00,10,4,20,0.00
2013-6-2,61.0,52.0,45.0,47.0,34.1,29.0,79,53,32,0.00,40.00,11,6,20,0.00
2013-6-3,74.0,58.4,38.0,44.0,33.3,23.0,88,48,16,0.00,40.00,6,2,14,0.00
2013-6-4,59.0,53.0,51.0,50.0,45.2,39.0,87,76,47,0.00,40.00,6,3,10,0.00
2013-6-5,56.0,51.8,50.0,51.0,47.2,46.0,87,85,73,0.00,40.00,7,4,16,0.00
2013-6-6,54.0,51.7,50.0,48.0,46.6,43.0,87,83,69,0.00,40.00,6,4,14,0.00
2013-6-7,67.0,53.8,50.0,47.0,43.5,40.0,83,70,39,0.00,40.00,5,2,7,0.00
2013-6-8,71.0,55.8,53.0,54.0,48.6,35.0,87,79,29,0.00,40.00,6,1,12,0.00
2013-6-9,73.0,62.3,53.0,57.0,49.6,44.0,84,65,45,0.00,40.00,8,3,21,0.00
2013-6-10,74.0,62.0,57.0,56.0,54.1,51.0,87,77,45,0.00,40.00,5,3,8,0.00
2013-6-11,79.0,74.5,70.0,59.0,55.8,51.0,70,54,40,0.00,40.00,2,2,9,0.00
2013-6-12,72.0,65.8,61.0,61.0,55.4,49.0,86,71,48,0.00,40.00,6,2,13,0.00
2013-6-13,68.0,61.6,59.0,56.0,52.1,45.0,85,73,49,0.00,40.00,6,4,12,0.00
2013-6-14,64.0,61.6,58.0,51.0,49.1,46.0,71,65,60,0.00,40.00,4,2,6,0.00
2013-6-15,79.0,65.7,60.0,61.0,56.9,50.0,87,75,47,0.00,40.00,7,2,29,0.00
2013-6-16,77.0,60.8,56.0,63.0,54.0,46.0,87,80,39,0.00,40.00,3,1,7,0.00
2013-6-17,70.0,60.7,53.0,56.0,51.5,46.0,84,72,54,0.00,40.00,6,2,11,0.00
2013-6-18,62.0,55.6,50.0,53.0,42.6,34.0,85,63,48,0.00,40.00,7,4,13,0.00
2013-6-19,64.0,49.2,42.0,51.0,42.6,39.0,88,79,46,0.00,40.00,1,0,3,0.00
2013-6-20,68.0,60.3,56.0,53.0,50.2,46.0,82,71,45,0.00,40.00,3,1,8,0.00
2013-6-22,80.0,72.2,67.0,69.0,62.7,58.0,86,74,51,0.00,40.00,6,3,16,0.00
2013-6-23,85.0,70.9,64.0,63.0,61.3,58.0,86,74,43,0.00,40.00,11,5,20,0.00
2013-6-24,83.0,74.8,66.0,65.0,62.4,59.0,85,67,51,0.00,40.00,7,4,14,0.00
2013-6-25,82.0,72.8,66.0,65.0,61.9,57.0,86,71,47,0.00,40.00,5,2,11,0.00
2013-6-26,78.0,70.9,69.0,68.0,65.5,62.0,86,83,59,0.00,40.00,5,1,11,0.00
2013-6-27,83.0,70.8,66.0,69.0,62.4,57.0,86,76,54,0.00,40.00,6,2,9,0.00
2013-6-28,75.0,68.2,64.0,63.0,57.4,53.0,86,70,48,0.00,40.00,11,4,17,0.00
2013-6-29,70.0,63.5,60.0,60.0,54.5,44.0,86,75,46,0.00,40.00,9,5,15,0.00
2013-6-30,69.0,58.3,53.0,49.0,44.4,40.0,70,61,35,0.00,40.00,6,3,10,0.00
2013-7-1,69.0,58.2,52.0,60.0,50.5,47.0,86,77,49,0.00,40.00,7,1,16,0.00
2013-7-2,71.0,59.5,54.0,51.0,45.4,40.0,70,60,34,0.00,40.00,4,3,9,0.00
2013-7-3,73.0,62.5,51.0,56.0,48.9,42.0,82,64,35,0.00,40.00,3,1,7,0.00
2013-7-4,76.0,63.8,59.0,60.0,54.5,50.0,86,74,40,0.00,40.00,3,1,8,0.00
2013-7-5,73.0,66.2,62.0,59.0,56.4,53.0,83,72,52,0.00,40.00,4,2,9,0.00
2013-7-6,83.0,72.5,67.0,59.0,57.9,55.0,75,61,39,0.00,40.00,6,4,13,0.00
2013-7-7,91.0,75.8,69.0,66.0,61.8,56.0,79,63,32,0.00,40.00,6,3,14,0.00
2013-7-8,82.0,72.6,68.0,74.0,63.8,-99.9,88,79,49,0.00,40.00,6,2,16,0.00
2013-7-9,85.0,75.1,66.0,70.0,64.8,60.0,85,72,46,0.00,40.00,8,2,19,0.00
2013-7-10,74.0,66.4,58.0,66.0,51.2,-99.9,81,64,43,0.00,40.00,9,5,20,0.00
2013-7-11,71.0,58.7,53.0,56.0,51.3,49.0,87,78,50,0.00,40.00,1,0,4,0.00
2013-7-12,76.0,61.7,58.0,56.0,51.4,48.0,84,71,42,0.00,40.00,4,0,9,0.00
2013-7-13,85.0,69.5,63.0,57.0,52.3,46.0,67,56,31,0.00,40.00,7,2,12,0.00
2013-7-14,75.0,65.4,59.0,62.0,55.8,53.0,85,72,56,0.00,40.00,1,0,2,0.00
2013-7-15,86.0,73.0,65.0,68.0,63.1,60.0,86,73,44,0.00,40.00,2,1,6,0.00
2013-7-16,92.0,79.0,72.0,70.0,67.0,63.0,86,69,39,0.00,40.00,5,2,12,0.00
2013-7-17,88.0,79.2,75.0,71.0,67.2,61.0,83,69,40,0.00,40.00,5,2,10,0.00
2013-7-18,95.0,80.3,75.0,70.0,65.4,60.0,80,62,32,0.00,40.00,7,3,15,0.00
2013-7-19,87.0,79.0,70.0,70.0,62.5,51.0,85,58,35,0.00,40.00,9,6,19,0.00
2013-7-20,80.0,68.9,65.0,58.0,52.1,-99.9,78,59,34,0.00,40.00,7,2,12,0.00
2013-7-21,69.0,62.8,58.0,61.0,54.6,50.0,88,75,60,0.00,40.00,5,2,12,0.00
2013-7-22,82.0,67.6,60.0,66.0,59.5,56.0,87,77,52,0.00,40.00,6,2,14,0.00
2013-7-23,74.0,64.5,55.0,62.0,47.4,40.0,70,55,33,0.00,40.00,10,6,21,0.00
2013-7-24,68.0,54.0,48.0,48.0,45.1,42.0,87,74,41,0.00,40.00,3,1,6,0.00
2013-7-25,72.0,62.7,52.0,64.0,53.7,45.0,87,74,48,0.00,40.00,6,2,13,0.00
2013-7-26,75.0,64.6,55.0,64.0,56.7,44.0,87,76,34,0.00,40.00,8,4,18,0.00
2013-7-27,61.0,53.1,47.0,48.0,41.9,36.0,87,67,49,0.00,40.00,9,4,17,0.00
2013-7-28,68.0,56.0,50.0,49.0,46.6,44.0,87,72,41,0.00,40.00,9,5,19,0.00
2013-7-29,71.0,56.6,52.0,52.0,47.0,44.0,81,71,37,0.00,40.00,7,3,12,0.00
2013-7-30,75.0,60.5,53.0,59.0,52.8,49.0,87,77,44,0.00,40.00,4,1,9,0.00
2013-7-31,78.0,67.6,62.0,62.0,58.5,56.0,85,73,48,0.00,40.00,6,2,11,0.00
2013-8-1,71.0,59.9,56.0,58.0,53.1,44.0,87,80,37,0.00,40.00,6,1,11,0.00
2013-8-2,77.0,60.2,53.0,54.0,49.5,45.0,86,71,32,0.00,40.00,5,1,13,0.00
2013-8-3,64.0,54.8,47.0,53.0,46.4,43.0,87,75,49,0.00,40.00,3,1,6,0.00
2013-8-4,67.0,55.6,47.0,52.0,46.3,44.0,87,72,46,0.00,40.00,3,1,6,0.00
2013-8-5,74.0,62.2,53.0,60.0,53.6,48.0,87,75,45,0.00,40.00,6,2,14,0.00
2013-8-6,80.0,67.8,65.0,62.0,59.3,52.0,85,76,39,0.00,40.00,9,3,13,0.00
2013-8-7,72.0,61.4,58.0,59.0,56.1,52.0,87,84,50,0.00,40.00,6,2,16,0.00
2013-8-8,64.0,60.6,56.0,52.0,50.2,46.0,87,70,51,0.00,40.00,1,0,1,0.00
2013-8-9,75.0,61.8,56.0,55.0,50.7,43.0,85,70,41,0.00,40.00,3,1,12,0.00
2013-8-10,72.0,63.2,55.0,53.0,49.0,42.0,84,63,35,0.00,40.00,4,1,9,0.00
2013-8-11,73.0,60.6,52.0,60.0,53.2,49.0,87,78,48,0.00,40.00,3,1,9,0.00
2013-8-12,78.0,61.7,55.0,64.0,53.5,44.0,87,77,40,0.00,40.00,4,1,10,0.00
2013-8-13,61.0,50.3,46.0,45.0,38.7,-99.9,84,70,44,0.00,40.00,7,2,14,0.00
2013-8-14,73.0,47.1,39.0,45.0,33.1,-99.9,88,74,19,0.00,40.00,4,0,13,0.00
2013-8-15,65.0,45.7,44.0,51.0,30.4,-99.9,87,74,25,0.00,40.00,4,1,10,0.00
2013-8-16,70.0,55.2,48.0,52.0,44.5,-99.9,87,75,16,0.00,40.00,3,0,10,0.00
2013-8-17,67.0,55.0,51.0,55.0,45.1,-99.9,87,76,51,0.00,40.00,1,0,3,0.00
2013-8-18,71.0,58.5,51.0,54.0,49.9,47.0,87,75,44,0.00,40.00,2,0,4,0.00
2013-8-19,74.0,56.0,53.0,59.0,40.6,-99.9,87,71,28,0.00,40.00,10,2,24,0.00
2013-8-20,72.0,66.5,61.0,66.0,59.7,57.0,86,79,62,0.00,40.00,6,2,16,0.00
2013-8-21,86.0,73.4,66.0,66.0,62.1,60.0,87,69,42,0.00,40.00,13,4,33,0.00
2013-8-22,77.0,63.7,60.0,62.0,57.8,54.0,87,82,46,0.00,40.00,4,1,7,0.00
2013-8-23,80.0,62.4,55.0,56.0,53.4,48.0,87,74,32,0.00,40.00,2,1,10,0.00
2013-8-24,86.0,65.6,55.0,63.0,51.6,-99.9,85,66,35,0.00,40.00,3,2,12,0.00
2013-8-25,88.0,76.7,71.0,67.0,64.3,62.0,80,67,42,0.00,40.00,9,6,20,0.00
2013-8-26,82.0,76.6,68.0,72.0,65.3,60.0,87,69,56,0.00,40.00,10,4,21,0.00
2013-8-27,84.0,77.3,74.0,72.0,69.6,64.0,85,78,51,0.00,40.00,6,1,12,0.00
2013-8-28,83.0,76.5,73.0,65.0,61.9,57.0,77,62,41,0.00,40.00,5,2,7,0.00
2013-8-29,83.0,70.2,64.0,69.0,63.2,58.0,86,80,42,0.00,40.00,4,1,9,0.00
2013-8-30,82.0,76.7,66.0,70.0,63.4,57.0,81,65,44,0.00,40.00,7,4,15,0.00
2013-8-31,74.0,62.9,56.0,61.0,53.5,-99.9,87,77,54,0.00,40.00,4,1,8,0.00
2013-9-1,82.0,69.4,65.0,67.0,60.3,51.0,87,75,45,0.00,40.00,8,2,13,0.00
2013-9-2,67.0,59.8,52.0,58.0,49.0,43.0,85,69,49,0.00,40.00,9,5,16,0.00
2013-9-3,65.0,52.1,42.0,50.0,43.7,39.0,88,75,44,0.00,40.00,4,2,7,0.00
2013-9-4,81.0,66.4,54.0,59.0,51.9,45.0,82,62,38,0.00,40.00,4,2,10,0.00
2013-9-5,60.0,57.7,54.0,56.0,50.9,45.0,87,79,60,0.00,40.00,4,2,9,0.00
2013-9-6,78.0,58.1,51.0,59.0,46.9,42.0,79,68,46,0.00,40.00,3,1,6,0.00
2013-9-7,87.0,75.4,68.0,65.0,58.4,-99.9,80,59,40,0.00,40.00,9,4,15,0.00
2013-9-8,72.0,64.5,57.0,62.0,51.5,46.0,82,64,43,0.00,40.00,7,5,16,0.00
2013-9-9,90.0,73.2,62.0,65.0,60.1,57.0,85,66,38,0.00,40.00,8,3,17,0.00
2013-9-10,88.0,79.1,68.0,66.0,60.0,55.0,86,54,34,0.00,40.00,9,4,17,0.00
2013-9-11,73.0,68.9,67.0,65.0,59.5,48.0,86,73,44,0.00,40.00,4,2,9,0.00
2013-9-12,67.0,58.2,50.0,52.0,46.8,35.0,85,68,42,0.00,40.00,9,4,17,0.00
2013-9-13,53.0,47.4,44.0,41.0,39.1,31.0,88,74,45,0.00,40.00,6,3,10,0.00
2013-9-14,55.0,42.5,39.0,45.0,33.4,-99.9,89,78,58,0.00,40.00,3,1,7,0.00
2013-9-15,63.0,56.7,52.0,51.0,48.0,41.0,87,74,55,0.00,40.00,9,4,17,0.00
2013-9-16,51.0,41.1,37.0,37.0,35.2,34.0,88,81,54,0.00,40.00,6,2,9,0.00
2013-9-17,58.0,39.8,34.0,49.0,35.4,31.0,88,85,74,0.00,40.00,0,0,2,0.00
2013-9-18,58.0,58.0,58.0,54.0,54.0,54.0,87,87,87,0.00,40.00,0,0,6,0.00
2013-9-19,78.0,76.3,75.0,66.0,65.1,64.0,70,68,66,0.00,40.00,5,3,23,0.00
2013-9-20,66.0,63.5,57.0,62.0,58.3,52.0,86,83,68,0.00,40.00,6,3,11,0.00
2013-9-21,58.0,49.0,44.0,43.0,31.7,-99.9,82,61,43,0.00,40.00,5,3,14,0.00
2013-9-22,44.0,42.0,40.0,39.0,37.5,36.0,86,84,82,0.00,40.00,4,1,6,0.00
2013-9-23,61.0,49.6,40.0,48.0,42.2,37.0,88,77,46,0.00,40.00,2,1,6,0.00
2013-9-24,60.0,55.7,49.0,45.0,44.3,44.0,85,67,54,0.00,40.00,1,1,3,0.00
2013-9-25,67.0,50.9,39.0,47.0,41.8,36.0,88,74,44,0.00,40.00,2,1,7,0.00
2013-9-26,63.0,50.9,40.0,59.0,43.8,36.0,87,78,49,0.00,40.00,2,1,7,0.00
2013-9-27,69.0,54.9,47.0,53.0,46.4,42.0,86,75,44,0.00,40.00,2,1,7,0.00
2013-9-28,80.0,58.7,51.0,62.0,46.7,-99.9,87,70,33,0.00,40.00,7,3,23,0.00
2013-9-29,63.0,50.3,41.0,52.0,43.9,38.0,87,80,52,0.00,40.00,4,2,9,0.00
2013-9-30,57.0,49.6,45.0,44.0,40.7,38.0,86,73,49,0.00,40.00,4,1,13,0.00
2013-10-23,40.0,37.7,34.0,26.0,23.1,18.0,69,56,44,0.00,40.00,5,4,12,0.00
2013-10-24,34.0,32.5,32.0,23.0,19.5,18.0,64,58,56,0.00,40.00,6,4,12,0.00
2013-10-25,35.0,33.0,31.0,27.0,26.3,26.0,82,77,67,0.00,40.00,3,2,9,0.00
2013-10-26,44.0,42.9,42.0,32.0,30.6,28.0,64,62,58,0.00,40.00,6,5,14,0.00
2013-10-27,39.0,36.3,34.0,26.0,25.3,25.0,69,64,59,0.00,40.00,2,1,3,0.00
2013-10-28,41.0,36.5,33.0,26.0,23.1,15.0,64,58,35,0.00,40.00,6,4,11,0.00
2013-10-29,40.0,36.1,28.0,31.0,28.0,22.0,80,73,69,0.00,40.00,4,3,11,0.00
2013-10-30,50.0,46.5,40.0,46.0,42.2,37.0,89,86,82,0.00,40.00,1,0,6,0.00
2013-10-31,51.0,49.8,47.0,48.0,46.4,44.0,88,88,88,0.00,40.00,6,4,16,0.00
2013-11-1,45.0,44.2,44.0,38.0,36.8,35.0,77,75,68,0.00,40.00,5,4,9,0.00
2013-11-3,40.0,32.2,26.0,31.0,27.1,23.0,88,82,70,0.00,40.00,1,0,7,0.00
2013-11-4,50.0,46.5,45.0,42.0,37.2,30.0,87,72,47,0.00,40.00,7,4,19,0.00
2013-11-5,44.0,38.9,32.0,40.0,35.3,29.0,88,87,86,0.00,40.00,5,3,10,0.00
2013-11-6,40.0,38.8,38.0,34.0,28.5,23.0,87,68,51,0.00,40.00,9,8,23,0.00
2013-11-7,34.0,30.4,26.0,26.0,22.1,17.0,84,72,49,0.00,40.00,3,2,11,0.00
2013-11-8,40.0,30.2,26.0,27.0,24.2,22.0,88,80,55,0.00,40.00,4,2,9,0.00
2013-11-9,44.0,44.0,44.0,36.0,36.0,36.0,74,74,74,0.00,40.00,6,6,12,0.00
2013-11-11,36.0,32.8,28.0,30.0,24.8,17.0,80,72,64,0.00,40.00,7,4,16,0.00
2013-11-12,23.0,18.0,15.0,7.0,5.7,3.0,71,60,42,0.00,40.00,6,3,13,0.00
2013-11-13,27.0,24.0,20.0,11.0,10.4,10.0,68,57,49,0.00,40.00,7,6,16,0.00
2013-11-14,45.0,37.7,32.0,26.0,25.0,24.0,73,61,47,0.00,40.00,2,1,4,0.00
2013-11-15,26.0,25.7,25.0,23.0,22.7,22.0,89,88,88,0.00,40.00,0,0,2,0.00
2013-11-16,44.0,40.5,37.0,40.0,35.5,31.0,88,84,79,0.00,40.00,1,0,6,0.00
2013-11-17,51.0,45.8,38.0,47.0,38.4,23.0,88,77,55,0.00,40.00,9,6,20,0.00
2013-11-18,38.0,32.4,30.0,23.0,18.2,10.0,61,56,41,0.00,40.00,9,6,28,0.00
2013-11-19,38.0,27.2,20.0,21.0,15.2,11.0,85,65,32,0.00,40.00,1,1,6,0.00
2013-11-20,38.0,34.6,33.0,29.0,24.7,19.0,87,69,46,0.00,40.00,2,1,11,0.00
2013-11-21,37.0,34.9,33.0,33.0,31.4,29.0,87,87,87,0.00,40.00,2,1,4,0.00
2013-11-22,31.0,28.4,27.0,23.0,18.6,10.0,76,67,42,0.00,40.00,6,4,16,0.00
2013-11-23,22.0,16.9,12.0,6.0,-2.5,-9.0,50,43,33,0.00,40.00,10,8,24,0.00
2013-11-24,7.0,7.0,7.0,-4.0,-4.0,-4.0,60,60,60,0.00,40.00,2,2,6,0.00
2013-11-25,33.0,30.0,27.0,20.0,19.0,18.0,67,62,58,0.00,40.00,9,6,17,0.00
2013-11-26,33.0,27.5,18.0,18.0,9.8,-2.0,55,48,41,0.00,40.00,11,8,19,0.00
2013-11-27,24.0,14.5,9.0,6.0,2.3,0.0,81,60,41,0.00,40.00,6,4,11,0.00
2013-11-28,24.0,20.1,17.0,15.0,12.9,6.0,84,75,51,0.00,40.00,4,1,9,0.00
2013-11-29,25.0,13.1,-1.0,10.0,4.2,-6.0,82,69,54,0.00,40.00,3,1,7,0.00
2013-11-30,37.0,35.5,34.0,20.0,19.5,19.0,55,52,48,0.00,40.00,3,3,7,0.00
2013-12-1,36.0,29.0,23.0,27.0,19.9,17.0,87,70,47,0.00,40.00,2,1,6,0.00
2013-12-2,36.0,29.3,20.0,29.0,22.9,17.0,89,78,60,0.00,40.00,2,1,9,0.00
2013-12-3,32.0,31.9,31.0,29.0,28.3,27.0,88,88,85,0.00,40.00,6,4,14,0.00
2013-12-4,32.0,30.1,29.0,29.0,26.8,26.0,88,88,88,0.00,40.00,12,7,26,0.00
2013-12-5,17.0,17.0,17.0,-4.0,-4.0,-4.0,38,38,38,0.00,40.00,8,8,20,0.00
2013-12-6,0.0,0.0,0.0,-8.0,-8.0,-8.0,68,68,68,0.00,40.00,4,4,9,0.00
2013-12-7,6.0,-0.8,-7.0,-10.0,-15.0,-99.9,72,57,40,0.00,40.00,7,3,14,0.00
2013-12-8,9.0,4.5,-4.0,2.0,-3.6,-11.0,74,69,64,0.00,40.00,6,3,12,0.00
2013-12-9,12.0,9.0,-3.0,6.0,1.3,-14.0,81,71,46,0.00,40.00,15,5,24,0.00
2013-12-10,11.0,5.8,-1.0,-6.0,-7.2,-9.0,72,56,45,0.00,40.00,7,5,20,0.00
2013-12-11,7.0,0.7,-7.0,-1.0,-10.2,-19.0,69,61,38,0.00,40.00,8,5,17,0.00
2013-12-12,16.0,9.1,-1.0,5.0,-2.6,-8.0,71,59,48,0.00,40.00,6,4,14,0.00
2013-12-13,16.0,14.2,12.0,5.0,1.6,-3.0,61,57,52,0.00,40.00,6,4,12,0.00
2013-12-14,11.0,11.0,11.0,4.0,3.3,3.0,72,71,69,0.00,40.00,10,8,16,0.00
2013-12-15,5.0,2.8,2.0,-3.0,-5.2,-6.0,70,70,69,0.00,40.00,6,4,17,0.00
2013-12-16,11.0,3.0,-7.0,5.0,-5.6,-14.0,79,67,49,0.00,40.00,5,2,10,0.00
2013-12-17,31.0,22.9,13.0,17.0,12.3,5.0,86,66,50,0.00,40.00,7,5,19,0.00
2013-12-18,28.0,14.3,3.0,8.0,2.1,-4.0,77,60,36,0.00,40.00,3,1,12,0.00
2013-12-19,26.0,20.0,10.0,16.0,12.4,6.0,86,73,60,0.00,40.00,12,4,19,0.00
2013-12-20,22.0,19.7,17.0,17.0,13.3,9.0,87,76,69,0.00,40.00,11,6,17,0.00
2013-12-21,26.0,23.2,20.0,23.0,17.0,-99.9,88,81,62,0.00,40.00,11,4,17,0.00
2013-12-22,23.0,22.0,19.0,18.0,15.2,13.0,84,75,65,0.00,40.00,7,4,14,0.00
2013-12-23,20.0,13.3,1.0,16.0,7.1,-5.0,85,76,63,0.00,40.00,4,2,9,0.00
2013-12-24,14.0,0.1,-18.0,3.0,-8.3,-24.0,76,68,52,0.00,40.00,4,1,11,0.00
2013-12-25,18.0,13.4,8.0,14.0,7.5,2.0,83,77,71,0.00,40.00,6,3,12,0.00
2013-12-26,20.0,15.5,11.0,10.0,7.9,4.0,79,72,60,0.00,40.00,4,2,9,0.00
2013-12-27,34.0,24.4,7.0,24.0,17.2,3.0,85,74,60,0.00,40.00,6,3,15,0.00
2013-12-28,43.0,28.5,21.0,32.0,20.3,-99.9,88,76,40,0.00,40.00,4,1,9,0.00
2013-12-29,32.0,15.9,-3.0,26.0,4.3,-15.0,82,61,41,0.00,40.00,12,6,21,0.00
2013-12-30,1.0,-3.2,-16.0,-10.0,-19.5,-24.0,68,46,32,0.00,40.00,5,2,9,0.00
2013-12-31,5.0,-2.3,-16.0,-9.0,-13.6,-24.0,69,58,43,0.00,40.00,7,3,14,0.00
2014-1-1,6.0,-0.8,-16.0,-11.0,-14.4,-24.0,68,53,37,0.00,40.00,7,4,12,0.00
2014-1-2,8.0,2.5,-15.0,-8.0,-12.1,-23.0,67,51,34,0.00,40.00,7,4,15,0.00